Date String (YYYY-MM-DD hh:mm:ss) UTC,Instrument flags,Ambient pressure (hPa),Sample flow (lpm),Bypass flow (lpm),Sample temperature (°C),Ambient temperature (°C),ASC tube jacket temperature (°C),LED temperature (°C),Box temperature (°C),Sample RH (%),Span deviation,Mass concentration (μg/m³),Mass concentration (μg/m³),Mass concentration (μg/m³)
DateTimeUTC,F1_M11,P_M11,Q1_M11,Q2_M11,T1_M11,T2_M11,T3_M11,T4_M11,T5_M11,U1_M11,ZSPAN_M11,X0_M11,X2_M11,X1_M11
2023-01-16 23:00:00,,0812.6,5.00,0.00,23.6,22.2,00.0,32.4,25.3,15.5,-002.1,0020.99,0013.11,0012.10
2023-01-16 23:01:00,,0812.7,5.00,0.00,23.6,22.0,00.0,32.4,25.2,15.8,-002.1,0020.86,0013.11,0012.09
2023-01-16 23:02:00,,0812.7,5.00,0.00,23.5,21.8,00.0,32.4,25.2,15.8,-001.4,0020.75,0013.14,0012.07
2023-01-16 23:03:00,,0812.6,4.99,0.00,23.5,21.8,00.0,32.4,25.2,15.8,-001.7,0021.10,0013.09,0012.02
2023-01-16 23:04:00,,0812.7,5.00,0.00,23.5,21.9,00.0,32.4,25.2,15.8,-001.7,0021.17,0013.06,0011.97
2023-01-16 23:05:00,,0812.6,5.00,0.00,23.5,22.0,00.0,32.4,25.2,15.6,-001.8,0021.05,0013.00,0011.89
2023-01-16 23:06:00,,0812.6,5.00,0.00,23.5,22.1,00.0,32.4,25.3,15.5,-001.4,0021.10,0012.96,0011.83
2023-01-16 23:07:00,,0812.7,5.00,0.00,23.5,22.2,00.0,32.4,25.3,15.4,-001.5,0021.11,0012.93,0011.77
2023-01-16 23:08:00,,0812.7,5.00,0.00,23.5,22.2,00.0,32.4,25.4,15.4,-001.4,0020.78,0012.86,0011.71
2023-01-16 23:09:00,,0812.7,5.00,0.00,23.6,22.3,00.0,32.4,25.4,15.4,-001.5,0019.93,0012.80,0011.67
2023-01-16 23:10:00,,0812.8,5.00,0.00,23.6,22.3,00.0,32.4,25.4,15.5,-001.3,0019.87,0012.77,0011.63
2023-01-16 23:11:00,,0812.8,5.00,0.00,23.6,22.3,00.0,32.4,25.4,15.4,-000.9,0020.09,0012.77,0011.57
2023-01-16 23:12:00,,0812.9,5.00,0.00,23.6,22.3,00.0,32.4,25.4,15.5,-000.7,0019.73,0012.73,0011.51
2023-01-16 23:13:00,,0812.9,5.00,0.00,23.6,22.3,00.0,32.4,25.4,15.5,-001.4,0019.72,0012.64,0011.46
2023-01-16 23:14:00,,0812.9,5.00,0.00,23.6,22.3,00.0,32.4,25.4,15.3,-001.3,0019.23,0012.63,0011.44
2023-01-16 23:15:00,,0812.8,5.00,0.00,23.6,22.4,00.0,32.4,25.5,15.2,-001.6,0019.10,0012.53,0011.36
2023-01-16 23:16:00,,0812.7,4.98,0.00,23.6,22.4,00.0,32.4,25.5,15.1,-001.8,0019.09,0012.49,0011.31
2023-01-16 23:17:00,,0812.8,5.00,0.00,23.6,22.4,00.0,32.4,25.5,15.0,-002.5,0019.09,0012.45,0011.25
2023-01-16 23:18:00,,0812.7,5.00,0.00,23.6,22.4,00.0,32.4,25.5,14.9,-002.8,0019.56,0012.34,0011.18
2023-01-16 23:19:00,,0812.7,5.00,0.00,23.6,22.4,00.0,32.4,25.5,14.8,-002.8,0019.51,0012.23,0011.08
2023-01-16 23:20:00,,0812.6,4.99,0.00,23.6,22.4,00.0,32.4,25.5,14.6,-002.7,0019.40,0012.10,0010.93
2023-01-16 23:21:00,,0812.7,5.00,0.00,23.6,22.4,00.0,32.4,25.5,14.5,-002.7,0019.22,0011.94,0010.78
2023-01-16 23:22:00,,0812.7,5.00,0.00,23.7,22.4,00.0,32.5,25.5,14.4,-002.8,0018.71,0011.72,0010.63
2023-01-16 23:23:00,,0812.8,4.99,0.00,23.7,22.4,00.0,32.5,25.5,14.3,-002.7,0019.02,0011.56,0010.48
2023-01-16 23:24:00,,0812.8,5.00,0.00,23.7,22.4,00.0,32.5,25.5,14.4,-002.3,0019.40,0011.47,0010.35
2023-01-16 23:25:00,,0812.8,5.00,0.00,23.7,22.4,00.0,32.5,25.5,14.4,-002.2,0018.62,0011.35,0010.21
2023-01-16 23:26:00,,0812.9,4.98,0.00,23.7,22.4,00.0,32.5,25.5,14.4,-001.8,0018.44,0011.24,0010.12
2023-01-16 23:27:00,,0812.9,5.00,0.00,23.7,22.4,00.0,32.5,25.5,14.6,-001.8,0018.31,0011.19,0010.06
2023-01-16 23:28:00,,0812.9,4.99,0.00,23.7,22.4,00.0,32.5,25.5,14.7,-000.9,0018.30,0011.17,0010.03
2023-01-16 23:29:00,,0812.9,5.00,0.00,23.7,22.5,00.0,32.5,25.5,14.6,-000.2,0018.26,0011.14,0010.00
2023-01-16 23:30:00,,0813.1,5.00,0.00,23.7,22.5,00.0,32.5,25.5,14.6,-000.8,0018.52,0011.20,0010.00
2023-01-16 23:31:00,,0813.1,5.02,0.00,23.7,22.5,00.0,32.5,25.5,14.6,-001.6,0019.56,0011.27,0010.01
2023-01-16 23:32:00,,0813.0,5.00,0.00,23.7,22.5,00.0,32.5,25.5,14.6,-001.3,0020.49,0011.31,0010.04
2023-01-16 23:33:00,,0812.9,5.00,0.00,23.7,22.5,00.0,32.5,25.6,14.6,-001.6,0020.61,0011.37,0010.07
2023-01-16 23:34:00,,0812.9,4.97,0.00,23.7,22.5,00.0,32.5,25.5,14.6,-001.9,0020.43,0011.36,0010.07
2023-01-16 23:35:00,,0812.9,4.99,0.00,23.7,22.4,00.0,32.5,25.5,14.5,-002.4,0019.93,0011.32,0010.02
2023-01-16 23:36:00,,0812.9,5.00,0.00,23.7,22.5,00.0,32.5,25.5,14.5,-002.5,0020.12,0011.30,0009.97
2023-01-16 23:37:00,,0812.8,5.00,0.00,23.7,22.5,00.0,32.5,25.5,14.5,-002.7,0020.24,0011.29,0009.94
2023-01-16 23:38:00,,0812.8,5.00,0.00,23.7,22.5,00.0,32.5,25.5,14.4,-002.6,0021.04,0011.19,0009.85
2023-01-16 23:39:00,,0812.9,5.00,0.00,23.7,22.4,00.0,32.5,25.5,14.3,-003.1,0020.98,0011.10,0009.76
2023-01-16 23:40:00,,0813.1,5.01,0.00,23.7,22.5,00.0,32.5,25.5,14.4,-003.3,0020.46,0011.04,0009.68
2023-01-16 23:41:00,,0812.9,5.03,0.00,23.7,22.5,00.0,32.5,25.5,14.4,-002.9,0020.08,0010.92,0009.61
2023-01-16 23:42:00,,0812.9,5.00,0.00,23.7,22.5,00.0,32.5,25.6,14.4,-002.3,0019.86,0010.83,0009.57
2023-01-16 23:43:00,,0813.0,5.00,0.00,23.7,22.5,00.0,32.6,25.5,14.4,-002.5,0018.91,0010.75,0009.51
2023-01-16 23:44:00,,0812.8,5.00,0.00,23.7,22.5,00.0,32.6,25.5,14.4,-002.0,0019.19,0010.73,0009.49
2023-01-16 23:45:00,,0812.9,5.00,0.00,23.7,22.5,00.0,32.6,25.5,14.5,-001.5,0019.02,0010.75,0009.50
2023-01-16 23:46:00,,0812.9,4.99,0.00,23.7,22.5,00.0,32.6,25.5,14.5,-000.7,0018.99,0010.81,0009.54
2023-01-16 23:47:00,,0812.9,5.00,0.00,23.7,22.5,00.0,32.6,25.6,14.5,-000.9,0019.31,0010.82,0009.57
2023-01-16 23:48:00,,0812.9,5.01,0.00,23.8,22.5,00.0,32.6,25.6,14.5,-001.0,0019.35,0010.83,0009.59
2023-01-16 23:49:00,,0812.9,5.01,0.00,23.8,22.5,00.0,32.6,25.5,14.5,-001.0,0018.43,0010.86,0009.63
2023-01-16 23:50:00,,0812.9,5.00,0.00,23.8,22.5,00.0,32.6,25.6,14.6,-000.7,0018.46,0010.91,0009.68
2023-01-16 23:51:00,,0812.8,4.99,0.00,23.8,22.5,00.0,32.6,25.6,14.6,-000.2,0018.59,0010.94,0009.75
2023-01-16 23:52:00,,0812.9,5.01,0.00,23.8,22.5,00.0,32.6,25.6,14.7,-000.4,0018.70,0011.02,0009.79
2023-01-16 23:53:00,,0812.9,5.00,0.00,23.8,22.5,00.0,32.6,25.6,14.7,0000.1,0018.49,0011.11,0009.85
2023-01-16 23:54:00,,0812.8,5.00,0.00,23.8,22.5,00.0,32.6,25.6,14.7,0000.7,0020.25,0011.22,0009.92
2023-01-16 23:55:00,,0812.8,4.99,0.00,23.8,22.5,00.0,32.6,25.6,14.7,0000.3,0021.08,0011.27,0009.96
2023-01-16 23:56:00,,0812.8,5.00,0.00,23.8,22.5,00.0,32.6,25.6,14.7,-000.4,0021.02,0011.31,0010.00
2023-01-16 23:57:00,,0812.8,4.99,0.00,23.8,22.5,00.0,32.6,25.6,14.7,-000.4,0021.11,0011.38,0010.04
2023-01-16 23:58:00,,0812.8,4.98,0.00,23.8,22.5,00.0,32.6,25.6,14.7,-000.5,0021.89,0011.41,0010.10
2023-01-16 23:59:00,,0812.9,4.97,0.00,23.8,22.5,00.0,32.6,25.6,14.8,-000.8,0022.56,0011.45,0010.14
